UTA446 USRK-UUWW

Flight info

Callsign UTA446
Flight time 3h 5m
Altitude 34000
Route KANAL2M KANAL B229 UNISO N869 REKPA N181 ROMTA ROMTA3B
Aircraft B735/M-SDFGIRWYZ/H

Departure

Time 2026-04-23 11:19
Airport Kogalym International Airport (USRK)

Arrival

Time 2026-04-23 14:25
Airport Vnukovo International Airport (UUWW)
Time Latitude Longitude Altitude Speed Heading
2026-04-23 10:59 62.19570 74.53095 229 ft 0 kts 279°
2026-04-23 11:14 62.19570 74.53094 229 ft 1 kts 279°
2026-04-23 11:14 62.19565 74.53067 229 ft 2 kts 213°
2026-04-23 11:14 62.19543 74.53064 229 ft 4 kts 168°
2026-04-23 11:14 62.19525 74.53121 229 ft 6 kts 103°
2026-04-23 11:15 62.19538 74.53205 231 ft 6 kts 37°
2026-04-23 11:15 62.19584 74.53232 229 ft 7 kts
2026-04-23 11:15 62.19641 74.53249 229 ft 9 kts
2026-04-23 11:15 62.19706 74.53272 229 ft 10 kts
2026-04-23 11:16 62.19761 74.53334 230 ft 8 kts 62°
2026-04-23 11:16 62.19757 74.53466 229 ft 10 kts 101°
2026-04-23 11:16 62.19749 74.53608 230 ft 9 kts 70°
2026-04-23 11:16 62.19806 74.53671 231 ft 10 kts 10°
2026-04-23 11:17 62.19878 74.53700 231 ft 11 kts 11°
2026-04-23 11:17 62.19969 74.53730 230 ft 15 kts
2026-04-23 11:17 62.20072 74.53751 231 ft 14 kts 347°
2026-04-23 11:17 62.20137 74.53751 229 ft 8 kts 65°
2026-04-23 11:18 62.20112 74.53788 230 ft 5 kts 191°
2026-04-23 11:18 62.20082 74.53776 231 ft 6 kts 191°
2026-04-23 11:18 62.19939 74.53720 230 ft 47 kts 189°
2026-04-23 11:18 62.19417 74.53526 227 ft 106 kts 190°
2026-04-23 11:19 62.18503 74.53179 240 ft 160 kts 193°
2026-04-23 11:19 62.17327 74.52709 769 ft 178 kts 192°
2026-04-23 11:19 62.16139 74.52260 1716 ft 173 kts 200°
2026-04-23 11:19 62.15101 74.50966 2377 ft 179 kts 229°
2026-04-23 11:20 62.14520 74.48636 3058 ft 177 kts 256°
2026-04-23 11:20 62.14467 74.46057 3809 ft 178 kts 274°
2026-04-23 11:20 62.14616 74.43208 4019 ft 208 kts 273°
2026-04-23 11:20 62.14722 74.40052 4679 ft 216 kts 271°
2026-04-23 11:21 62.14812 74.36763 5244 ft 229 kts 271°
2026-04-23 11:21 62.14873 74.33236 5771 ft 244 kts 270°
2026-04-23 11:21 62.14913 74.29552 6510 ft 250 kts 269°
2026-04-23 11:21 62.14953 74.25794 7307 ft 255 kts 269°
2026-04-23 11:22 62.14991 74.21982 8129 ft 259 kts 269°
2026-04-23 11:22 62.15031 74.18097 8989 ft 262 kts 268°
2026-04-23 11:22 62.15072 74.14178 9830 ft 265 kts 268°
2026-04-23 11:22 62.15112 74.10229 10474 ft 275 kts 268°
2026-04-23 11:23 62.15153 74.06017 10915 ft 290 kts 268°
2026-04-23 11:23 62.15199 74.01659 11714 ft 294 kts 269°
2026-04-23 11:23 62.15246 73.97254 12463 ft 299 kts 269°
2026-04-23 11:23 62.15293 73.92771 13252 ft 303 kts 269°
2026-04-23 11:24 62.15341 73.88231 13980 ft 307 kts 268°
2026-04-23 11:24 62.15389 73.83642 14722 ft 309 kts 268°
2026-04-23 11:24 62.15436 73.79072 15456 ft 312 kts 268°
2026-04-23 11:24 62.15484 73.74412 16166 ft 315 kts 268°
2026-04-23 11:25 62.15533 73.69703 16897 ft 318 kts 268°
2026-04-23 11:25 62.15575 73.64952 17620 ft 321 kts 267°
2026-04-23 11:25 62.15510 73.60179 18269 ft 323 kts 263°
2026-04-23 11:25 62.15294 73.55384 18904 ft 324 kts 260°
2026-04-23 11:26 62.15008 73.50579 19551 ft 327 kts 259°
2026-04-23 11:26 62.14713 73.45734 20159 ft 330 kts 260°
2026-04-23 11:26 62.14428 73.40836 20767 ft 333 kts 260°
2026-04-23 11:26 62.14148 73.35888 21364 ft 336 kts 260°
2026-04-23 11:27 62.13869 73.30911 21956 ft 339 kts 260°
2026-04-23 11:27 62.13585 73.25864 22532 ft 342 kts 260°
2026-04-23 11:27 62.13299 73.20800 23115 ft 345 kts 260°
2026-04-23 11:27 62.13010 73.15686 23582 ft 348 kts 260°
2026-04-23 11:28 62.12719 73.10543 24073 ft 351 kts 260°
2026-04-23 11:28 62.12425 73.05342 24544 ft 353 kts 260°
2026-04-23 11:28 62.12129 73.00106 24981 ft 356 kts 260°
2026-04-23 11:28 62.11831 72.94830 25432 ft 359 kts 260°
2026-04-23 11:29 62.11534 72.89571 25873 ft 362 kts 260°
2026-04-23 11:29 62.11231 72.84214 26304 ft 365 kts 260°
2026-04-23 11:29 62.10925 72.78809 26739 ft 368 kts 260°
2026-04-23 11:29 62.10617 72.73360 27180 ft 371 kts 260°
2026-04-23 11:30 62.10306 72.67867 27612 ft 374 kts 260°
2026-04-23 11:30 62.09992 72.62314 28039 ft 377 kts 260°
2026-04-23 11:30 62.09676 72.56729 28440 ft 381 kts 260°
2026-04-23 11:30 62.09354 72.51050 28635 ft 390 kts 260°
2026-04-23 11:31 62.09026 72.45259 28996 ft 394 kts 261°
2026-04-23 11:31 62.08698 72.39462 29478 ft 396 kts 261°
2026-04-23 11:31 62.08364 72.33538 29605 ft 406 kts 261°
2026-04-23 11:31 62.08025 72.27539 29974 ft 408 kts 261°
2026-04-23 11:32 62.07686 72.21539 30485 ft 406 kts 261°
2026-04-23 11:32 62.07347 72.15548 30840 ft 408 kts 261°
2026-04-23 11:32 62.07006 72.09531 31218 ft 409 kts 261°
2026-04-23 11:32 62.06665 72.03505 31691 ft 408 kts 261°
2026-04-23 11:33 62.06325 71.97503 32119 ft 408 kts 261°
2026-04-23 11:33 62.05984 71.91482 32512 ft 409 kts 261°
2026-04-23 11:33 62.05647 71.85544 32940 ft 408 kts 261°
2026-04-23 11:33 62.05303 71.79464 33283 ft 410 kts 261°
2026-04-23 11:34 62.04963 71.73480 33536 ft 413 kts 261°
2026-04-23 11:34 62.04615 71.67344 33641 ft 419 kts 261°
2026-04-23 11:34 62.04265 71.61178 33647 ft 421 kts 261°
2026-04-23 11:35 62.03560 71.48831 33638 ft 417 kts 261°
2026-04-23 11:35 62.02780 71.36668 33636 ft 413 kts 260°
2026-04-23 11:36 62.01961 71.24562 33644 ft 413 kts 260°
2026-04-23 11:36 62.01151 71.12390 33651 ft 417 kts 260°
2026-04-23 11:37 62.00333 71.00113 33654 ft 419 kts 260°
2026-04-23 11:37 61.99420 70.87860 33647 ft 420 kts 259°
2026-04-23 11:38 61.98445 70.75676 33650 ft 420 kts 259°
2026-04-23 11:38 61.97479 70.63417 33646 ft 420 kts 259°
2026-04-23 11:39 61.96521 70.51182 33648 ft 419 kts 259°
2026-04-23 11:39 61.95563 70.38988 33643 ft 419 kts 259°
2026-04-23 11:40 61.94605 70.26792 33644 ft 419 kts 259°
2026-04-23 11:40 61.93643 70.14548 33644 ft 420 kts 259°
2026-04-23 11:41 61.92680 70.02304 33638 ft 421 kts 259°
2026-04-23 11:41 61.91715 69.90034 33638 ft 421 kts 259°
2026-04-23 11:42 61.90760 69.77884 33635 ft 421 kts 259°
2026-04-23 11:42 61.89796 69.65631 33635 ft 420 kts 259°
2026-04-23 11:43 61.88832 69.53394 33636 ft 420 kts 259°
2026-04-23 11:43 61.87871 69.41178 33635 ft 420 kts 259°
2026-04-23 11:44 61.86910 69.28980 33637 ft 420 kts 259°
2026-04-23 11:44 61.85946 69.16742 33638 ft 421 kts 259°
2026-04-23 11:45 61.84982 69.04509 33639 ft 421 kts 259°
2026-04-23 11:45 61.84024 68.92358 33641 ft 421 kts 259°
2026-04-23 11:46 61.83059 68.80131 33644 ft 421 kts 259°
2026-04-23 11:46 61.82096 68.67915 33646 ft 421 kts 259°
2026-04-23 11:47 61.81132 68.55701 33646 ft 420 kts 259°
2026-04-23 11:47 61.80172 68.43537 33645 ft 420 kts 259°
2026-04-23 11:48 61.79208 68.31325 33643 ft 420 kts 259°
2026-04-23 11:48 61.78251 68.19217 33644 ft 420 kts 259°
2026-04-23 11:49 61.77179 68.07068 33646 ft 421 kts 257°
2026-04-23 11:49 61.75905 67.95009 33647 ft 421 kts 256°
2026-04-23 11:50 61.74628 67.82936 33647 ft 421 kts 257°
2026-04-23 11:50 61.73381 67.70877 33646 ft 422 kts 257°
2026-04-23 11:51 61.72123 67.58761 33648 ft 421 kts 257°
2026-04-23 11:51 61.70868 67.46707 33648 ft 421 kts 257°
2026-04-23 11:52 61.69613 67.34641 33648 ft 421 kts 257°
2026-04-23 11:52 61.68367 67.22674 33654 ft 421 kts 257°
2026-04-23 11:53 61.67114 67.10644 33652 ft 420 kts 257°
2026-04-23 11:53 61.65861 66.98618 33658 ft 420 kts 257°
2026-04-23 11:54 61.64610 66.86610 33659 ft 420 kts 257°
2026-04-23 11:54 61.63357 66.74596 33657 ft 421 kts 257°
2026-04-23 11:55 61.62104 66.62585 33652 ft 421 kts 257°
2026-04-23 11:55 61.60847 66.50539 33652 ft 422 kts 257°
2026-04-23 11:56 61.59599 66.38580 33647 ft 422 kts 257°
2026-04-23 11:56 61.58340 66.26529 33649 ft 422 kts 257°
2026-04-23 11:57 61.57084 66.14504 33653 ft 421 kts 257°
2026-04-23 11:57 61.55828 66.02494 33651 ft 421 kts 257°
2026-04-23 11:58 61.54573 65.90492 33653 ft 421 kts 257°
2026-04-23 11:58 61.53329 65.78600 33655 ft 421 kts 257°
2026-04-23 11:59 61.52075 65.66619 33655 ft 421 kts 257°
2026-04-23 11:59 61.50821 65.54638 33652 ft 421 kts 257°
2026-04-23 12:00 61.49566 65.42657 33653 ft 421 kts 257°
2026-04-23 12:00 61.48312 65.30686 33656 ft 421 kts 257°
2026-04-23 12:01 61.47269 65.20731 33657 ft 421 kts 257°
2026-04-23 12:01 61.45803 65.06752 33647 ft 422 kts 257°
2026-04-23 12:02 61.44542 64.94735 33650 ft 424 kts 257°
2026-04-23 12:02 61.43495 64.84761 33649 ft 423 kts 257°
2026-04-23 12:03 61.42232 64.72733 33645 ft 423 kts 257°
2026-04-23 12:03 61.40973 64.60746 33645 ft 422 kts 257°
2026-04-23 12:04 61.39669 64.48810 33646 ft 422 kts 256°
2026-04-23 12:04 61.38227 64.36932 33647 ft 422 kts 255°
2026-04-23 12:05 61.36769 64.25057 33647 ft 423 kts 255°
2026-04-23 12:05 61.35339 64.13237 33647 ft 423 kts 255°
2026-04-23 12:06 61.33900 64.01362 33646 ft 423 kts 255°
2026-04-23 12:06 61.31736 63.83544 33642 ft 422 kts 255°
2026-04-23 12:07 61.30297 63.71697 33645 ft 422 kts 255°
2026-04-23 12:07 61.28818 63.59878 33636 ft 422 kts 254°
2026-04-23 12:08 61.27298 63.48142 33636 ft 422 kts 254°
2026-04-23 12:08 61.25766 63.36278 33633 ft 423 kts 254°
2026-04-23 12:09 61.24255 63.24539 33638 ft 423 kts 254°
2026-04-23 12:09 61.22735 63.12743 33635 ft 422 kts 254°
2026-04-23 12:10 61.21220 63.01002 33632 ft 421 kts 254°
2026-04-23 12:10 61.19703 62.89247 33632 ft 421 kts 254°
2026-04-23 12:11 61.18186 62.77509 33635 ft 422 kts 254°
2026-04-23 12:11 61.16627 62.65853 33636 ft 422 kts 253°
2026-04-23 12:12 61.15013 62.54172 33634 ft 422 kts 253°
2026-04-23 12:12 61.13402 62.42474 33636 ft 422 kts 253°
2026-04-23 12:13 61.11797 62.30778 33636 ft 423 kts 253°
2026-04-23 12:13 61.10188 62.19075 33636 ft 423 kts 253°
2026-04-23 12:14 61.08581 62.07393 33635 ft 423 kts 253°
2026-04-23 12:14 61.06970 61.95696 33629 ft 423 kts 253°
2026-04-23 12:15 61.05363 61.84024 33629 ft 423 kts 253°
2026-04-23 12:15 61.03754 61.72343 33626 ft 422 kts 253°
2026-04-23 12:16 61.02146 61.60694 33627 ft 422 kts 253°
2026-04-23 12:16 61.00438 61.49188 33624 ft 422 kts 251°
2026-04-23 12:17 60.98602 61.37678 33625 ft 422 kts 251°
2026-04-23 12:17 60.96782 61.26179 33630 ft 423 kts 251°
2026-04-23 12:18 60.94969 61.14628 33623 ft 424 kts 251°
2026-04-23 12:18 60.93151 61.03083 33626 ft 424 kts 251°
2026-04-23 12:19 60.91332 60.91548 33623 ft 424 kts 251°
2026-04-23 12:19 60.89517 60.80037 33623 ft 423 kts 251°
2026-04-23 12:20 60.87703 60.68536 33622 ft 423 kts 251°
2026-04-23 12:20 60.85898 60.57105 33622 ft 424 kts 251°
2026-04-23 12:21 60.84078 60.45582 33618 ft 424 kts 251°
2026-04-23 12:21 60.82259 60.34079 33613 ft 423 kts 251°
2026-04-23 12:22 60.80444 60.22599 33612 ft 423 kts 251°
2026-04-23 12:22 60.78629 60.11128 33608 ft 424 kts 251°
2026-04-23 12:23 60.76811 59.99648 33611 ft 424 kts 251°
2026-04-23 12:23 60.74991 59.88158 33606 ft 424 kts 251°
2026-04-23 12:24 60.73172 59.76682 33605 ft 424 kts 251°
2026-04-23 12:24 60.71364 59.65282 33609 ft 424 kts 251°
2026-04-23 12:25 60.69545 59.53819 33610 ft 424 kts 251°
2026-04-23 12:25 60.67727 59.42370 33608 ft 424 kts 251°
2026-04-23 12:26 60.65906 59.30911 33604 ft 424 kts 251°
2026-04-23 12:26 60.64084 59.19446 33609 ft 426 kts 251°
2026-04-23 12:27 60.62258 59.07964 33608 ft 426 kts 251°
2026-04-23 12:27 60.60445 58.96574 33611 ft 425 kts 251°
2026-04-23 12:28 60.58626 58.85149 33609 ft 425 kts 251°
2026-04-23 12:28 60.56803 58.73707 33610 ft 425 kts 251°
2026-04-23 12:29 60.54980 58.62271 33608 ft 426 kts 251°
2026-04-23 12:29 60.53149 58.50797 33612 ft 427 kts 251°
2026-04-23 12:30 60.51321 58.39338 33611 ft 427 kts 251°
2026-04-23 12:30 60.49490 58.27871 33611 ft 426 kts 251°
2026-04-23 12:31 60.47661 58.16426 33615 ft 426 kts 251°
2026-04-23 12:31 60.45849 58.05091 33613 ft 426 kts 251°
2026-04-23 12:32 60.44016 57.93636 33615 ft 427 kts 251°
2026-04-23 12:32 60.42184 57.82191 33615 ft 428 kts 251°
2026-04-23 12:33 60.40349 57.70726 33615 ft 428 kts 251°
2026-04-23 12:33 60.38507 57.59306 33618 ft 426 kts 250°
2026-04-23 12:34 60.36509 57.48050 33610 ft 425 kts 248°
2026-04-23 12:34 60.34408 57.36862 33615 ft 426 kts 248°
2026-04-23 12:35 60.32345 57.25721 33614 ft 427 kts 249°
2026-04-23 12:35 60.30270 57.14454 33610 ft 428 kts 249°
2026-04-23 12:36 60.28194 57.03224 33610 ft 427 kts 249°
2026-04-23 12:36 60.26118 56.92004 33610 ft 427 kts 249°
2026-04-23 12:37 60.24046 56.80807 33609 ft 426 kts 249°
2026-04-23 12:37 60.21974 56.69619 33611 ft 427 kts 249°
2026-04-23 12:38 60.19910 56.58484 33608 ft 428 kts 249°
2026-04-23 12:38 60.17829 56.47262 33608 ft 428 kts 249°
2026-04-23 12:39 60.15749 56.36051 33604 ft 428 kts 249°
2026-04-23 12:39 60.13674 56.24880 33605 ft 427 kts 249°
2026-04-23 12:40 60.11607 56.13756 33596 ft 427 kts 249°
2026-04-23 12:40 60.09535 56.02606 33595 ft 428 kts 249°
2026-04-23 12:41 60.07454 55.91421 33595 ft 428 kts 249°
2026-04-23 12:41 60.05372 55.80241 33593 ft 428 kts 249°
2026-04-23 12:42 60.03292 55.69074 33593 ft 427 kts 249°
2026-04-23 12:42 60.01217 55.57943 33592 ft 427 kts 249°
2026-04-23 12:43 59.99142 55.46817 33593 ft 428 kts 249°
2026-04-23 12:43 59.97339 55.35489 33593 ft 428 kts 256°
2026-04-23 12:44 59.96128 55.23899 33593 ft 429 kts 257°
2026-04-23 12:44 59.94849 55.12261 33589 ft 429 kts 256°
2026-04-23 12:45 59.93488 55.00680 33589 ft 428 kts 256°
2026-04-23 12:45 59.92147 54.89098 33588 ft 428 kts 256°
2026-04-23 12:46 59.90815 54.77515 33585 ft 428 kts 256°
2026-04-23 12:46 59.89491 54.66038 33585 ft 426 kts 256°
2026-04-23 12:47 59.88162 54.54527 33582 ft 427 kts 256°
2026-04-23 12:47 59.86830 54.43000 33590 ft 427 kts 256°
2026-04-23 12:48 59.85501 54.31498 33579 ft 427 kts 256°
2026-04-23 12:48 59.84170 54.19980 33579 ft 426 kts 256°
2026-04-23 12:49 59.82841 54.08487 33579 ft 427 kts 256°
2026-04-23 12:49 59.81508 53.96967 33570 ft 427 kts 256°
2026-04-23 12:50 59.80182 53.85501 33570 ft 427 kts 256°
2026-04-23 12:50 59.78858 53.74072 33563 ft 427 kts 256°
2026-04-23 12:51 59.77529 53.62591 33563 ft 427 kts 256°
2026-04-23 12:51 59.76421 53.53031 33564 ft 427 kts 256°
2026-04-23 12:52 59.75090 53.41548 33562 ft 426 kts 256°
2026-04-23 12:52 59.73539 53.28172 33568 ft 426 kts 256°
2026-04-23 12:53 59.72434 53.18649 33565 ft 426 kts 256°
2026-04-23 12:53 59.71107 53.07213 33562 ft 426 kts 256°
2026-04-23 12:54 59.69779 52.95775 33565 ft 426 kts 256°
2026-04-23 12:54 59.68464 52.84451 33551 ft 424 kts 256°
2026-04-23 12:55 59.67144 52.73089 33556 ft 424 kts 256°
2026-04-23 12:55 59.65821 52.61708 33551 ft 424 kts 256°
2026-04-23 12:56 59.64500 52.50343 33553 ft 424 kts 256°
2026-04-23 12:56 59.63176 52.38964 33546 ft 424 kts 256°
2026-04-23 12:57 59.61856 52.27621 33547 ft 424 kts 256°
2026-04-23 12:57 59.60541 52.16327 33547 ft 424 kts 256°
2026-04-23 12:58 59.59219 52.04971 33540 ft 424 kts 256°
2026-04-23 12:58 59.57896 51.93617 33540 ft 424 kts 256°
2026-04-23 12:59 59.56575 51.82282 33535 ft 424 kts 256°
2026-04-23 12:59 59.55253 51.70941 33542 ft 424 kts 256°
2026-04-23 13:00 59.53932 51.59616 33537 ft 424 kts 256°
2026-04-23 13:00 59.52610 51.48290 33532 ft 424 kts 256°
2026-04-23 13:01 59.51289 51.36975 33525 ft 424 kts 256°
2026-04-23 13:01 59.49977 51.25740 33527 ft 424 kts 256°
2026-04-23 13:02 59.48658 51.14447 33528 ft 423 kts 256°
2026-04-23 13:02 59.47337 51.03143 33522 ft 424 kts 256°
2026-04-23 13:03 59.46016 50.91852 33521 ft 424 kts 256°
2026-04-23 13:03 59.44696 50.80560 33516 ft 424 kts 256°
2026-04-23 13:04 59.43375 50.69273 33524 ft 424 kts 256°
2026-04-23 13:04 59.42053 50.57983 33523 ft 424 kts 256°
2026-04-23 13:05 59.40737 50.46743 33507 ft 424 kts 256°
2026-04-23 13:05 59.39417 50.35476 33511 ft 424 kts 256°
2026-04-23 13:06 59.37432 50.18537 33512 ft 424 kts 256°
2026-04-23 13:07 59.36110 50.07262 33508 ft 424 kts 256°
2026-04-23 13:07 59.34787 49.95991 33508 ft 424 kts 256°
2026-04-23 13:08 59.33464 49.84717 33518 ft 425 kts 256°
2026-04-23 13:08 59.32138 49.73423 33499 ft 424 kts 256°
2026-04-23 13:09 59.30819 49.62187 33497 ft 423 kts 256°
2026-04-23 13:09 59.29498 49.50948 33501 ft 424 kts 256°
2026-04-23 13:10 59.28186 49.39786 33498 ft 424 kts 256°
2026-04-23 13:10 59.26859 49.28498 33484 ft 425 kts 256°
2026-04-23 13:11 59.25534 49.17235 33484 ft 425 kts 256°
2026-04-23 13:11 59.24209 49.05979 33481 ft 425 kts 256°
2026-04-23 13:12 59.22888 48.94752 33480 ft 424 kts 256°
2026-04-23 13:12 59.21557 48.83512 33477 ft 424 kts 255°
2026-04-23 13:13 59.19786 48.72631 33478 ft 424 kts 247°
2026-04-23 13:13 59.17455 48.62069 33470 ft 424 kts 246°
2026-04-23 13:14 59.15169 48.51456 33461 ft 425 kts 247°
2026-04-23 13:14 59.12952 48.40802 33464 ft 424 kts 247°
2026-04-23 13:15 59.10721 48.30178 33460 ft 423 kts 247°
2026-04-23 13:15 59.08486 48.19579 33458 ft 424 kts 247°
2026-04-23 13:16 59.06248 48.08960 33459 ft 425 kts 247°
2026-04-23 13:16 59.04004 47.98314 33452 ft 425 kts 247°
2026-04-23 13:17 59.01780 47.87774 33453 ft 425 kts 247°
2026-04-23 13:17 58.99540 47.77168 33448 ft 425 kts 247°
2026-04-23 13:18 58.97300 47.66564 33448 ft 425 kts 247°
2026-04-23 13:18 58.95060 47.55969 33443 ft 425 kts 247°
2026-04-23 13:19 58.92795 47.45399 33443 ft 425 kts 246°
2026-04-23 13:19 58.90439 47.34919 33435 ft 424 kts 245°
2026-04-23 13:20 58.88065 47.24450 33433 ft 424 kts 245°
2026-04-23 13:20 58.85709 47.13994 33428 ft 425 kts 246°
2026-04-23 13:21 58.83358 47.03567 33417 ft 425 kts 245°
2026-04-23 13:21 58.80998 46.93116 33421 ft 425 kts 245°
2026-04-23 13:22 58.78639 46.82674 33420 ft 425 kts 245°
2026-04-23 13:22 58.76272 46.72205 33421 ft 425 kts 245°
2026-04-23 13:23 58.73908 46.61756 33416 ft 425 kts 245°
2026-04-23 13:23 58.71550 46.51341 33411 ft 425 kts 245°
2026-04-23 13:24 58.69198 46.40958 33410 ft 425 kts 245°
2026-04-23 13:24 58.66834 46.30530 33413 ft 426 kts 245°
2026-04-23 13:25 58.64462 46.20073 33393 ft 428 kts 246°
2026-04-23 13:25 58.62080 46.09581 33396 ft 429 kts 246°
2026-04-23 13:26 58.59698 45.99098 33399 ft 428 kts 246°
2026-04-23 13:26 58.57320 45.88635 33402 ft 428 kts 246°
2026-04-23 13:27 58.54965 45.78159 33391 ft 428 kts 248°
2026-04-23 13:27 58.53079 45.67333 33392 ft 430 kts 253°
2026-04-23 13:28 58.51533 45.56337 33393 ft 430 kts 253°
2026-04-23 13:28 58.49898 45.45325 33382 ft 430 kts 253°
2026-04-23 13:29 58.48225 45.34348 33380 ft 430 kts 253°
2026-04-23 13:29 58.46570 45.23369 33389 ft 430 kts 253°
2026-04-23 13:30 58.44918 45.12398 33389 ft 430 kts 253°
2026-04-23 13:30 58.43260 45.01407 33376 ft 430 kts 253°
2026-04-23 13:31 58.41617 44.90524 33384 ft 430 kts 253°
2026-04-23 13:31 58.39963 44.79569 33382 ft 430 kts 253°
2026-04-23 13:32 58.38307 44.68606 33375 ft 432 kts 253°
2026-04-23 13:32 58.36636 44.57548 33376 ft 433 kts 253°
2026-04-23 13:33 58.34972 44.46542 33371 ft 433 kts 253°
2026-04-23 13:33 58.33303 44.35517 33370 ft 433 kts 253°
2026-04-23 13:34 58.31645 44.24558 33370 ft 434 kts 253°
2026-04-23 13:34 58.29975 44.13533 33369 ft 433 kts 253°
2026-04-23 13:35 58.28309 44.02533 33368 ft 433 kts 253°
2026-04-23 13:35 58.26644 43.91547 33366 ft 433 kts 253°
2026-04-23 13:36 58.24979 43.80570 33366 ft 432 kts 253°
2026-04-23 13:36 58.23310 43.69571 33367 ft 434 kts 253°
2026-04-23 13:37 58.21638 43.58556 33368 ft 435 kts 253°
2026-04-23 13:37 58.19965 43.47539 33378 ft 434 kts 253°
2026-04-23 13:38 58.18289 43.36503 33375 ft 437 kts 253°
2026-04-23 13:38 58.16607 43.25439 33370 ft 437 kts 253°
2026-04-23 13:39 58.14927 43.14390 33368 ft 436 kts 253°
2026-04-23 13:39 58.13247 43.03353 33373 ft 438 kts 253°
2026-04-23 13:40 58.11571 42.92339 33383 ft 438 kts 253°
2026-04-23 13:40 58.09883 42.81256 33382 ft 438 kts 253°
2026-04-23 13:41 58.08204 42.70233 33383 ft 437 kts 253°
2026-04-23 13:41 58.06519 42.59182 33380 ft 437 kts 253°
2026-04-23 13:42 58.04838 42.48159 33391 ft 437 kts 253°
2026-04-23 13:42 58.03167 42.37208 33392 ft 438 kts 253°
2026-04-23 13:43 58.01475 42.26121 33397 ft 439 kts 253°
2026-04-23 13:43 57.99796 42.15124 33390 ft 436 kts 253°
2026-04-23 13:44 57.98111 42.04100 33389 ft 438 kts 253°
2026-04-23 13:44 57.96716 41.94974 33396 ft 435 kts 253°
2026-04-23 13:45 57.95023 41.83906 33396 ft 440 kts 253°
2026-04-23 13:45 57.93344 41.72932 33391 ft 434 kts 253°
2026-04-23 13:46 57.91653 41.61891 33406 ft 443 kts 253°
2026-04-23 13:46 57.89873 41.50952 33402 ft 433 kts 252°
2026-04-23 13:47 57.87943 41.40075 33410 ft 442 kts 251°
2026-04-23 13:47 57.86023 41.29252 33399 ft 433 kts 251°
2026-04-23 13:48 57.84110 41.18349 33412 ft 441 kts 251°
2026-04-23 13:48 57.82219 41.07589 33406 ft 433 kts 251°
2026-04-23 13:49 57.80296 40.96674 33416 ft 448 kts 252°
2026-04-23 13:49 57.78365 40.85713 33404 ft 436 kts 252°
2026-04-23 13:50 57.76442 40.74801 33419 ft 446 kts 252°
2026-04-23 13:50 57.74515 40.63874 33405 ft 437 kts 252°
2026-04-23 13:51 57.72595 40.52994 33409 ft 445 kts 252°
2026-04-23 13:51 57.70672 40.42102 33413 ft 440 kts 252°
2026-04-23 13:52 57.68746 40.31195 33419 ft 445 kts 252°
2026-04-23 13:52 57.66818 40.20287 33406 ft 440 kts 252°
2026-04-23 13:53 57.64890 40.09378 33418 ft 444 kts 252°
2026-04-23 13:53 57.62938 39.98476 33410 ft 441 kts 251°
2026-04-23 13:54 57.60922 39.87649 33414 ft 444 kts 251°
2026-04-23 13:54 57.58860 39.76696 33420 ft 452 kts 252°
2026-04-23 13:55 57.56802 39.65725 33416 ft 448 kts 252°
2026-04-23 13:55 57.54746 39.54755 33426 ft 446 kts 252°
2026-04-23 13:56 57.52706 39.43850 33425 ft 450 kts 252°
2026-04-23 13:56 57.50645 39.32862 33423 ft 448 kts 252°
2026-04-23 13:57 57.48578 39.21941 33425 ft 448 kts 251°
2026-04-23 13:57 57.46449 39.11055 33438 ft 449 kts 251°
2026-04-23 13:58 57.44318 39.00160 33445 ft 449 kts 251°
2026-04-23 13:58 57.42185 38.89270 33444 ft 449 kts 251°
2026-04-23 13:59 57.40062 38.78342 33444 ft 449 kts 251°
2026-04-23 13:59 57.37948 38.67530 33454 ft 449 kts 251°
2026-04-23 14:00 57.36171 38.58395 33457 ft 453 kts 252°
2026-04-23 14:00 57.34737 38.51126 33599 ft 453 kts 252°
2026-04-23 14:00 57.33660 38.45625 33615 ft 453 kts 252°
2026-04-23 14:01 57.31517 38.34724 33575 ft 449 kts 250°
2026-04-23 14:01 57.28691 38.24362 33413 ft 456 kts 240°
2026-04-23 14:01 57.27037 38.19390 33015 ft 453 kts 240°
2026-04-23 14:02 57.25358 38.14489 32620 ft 449 kts 240°
2026-04-23 14:02 57.23714 38.09609 32237 ft 447 kts 241°
2026-04-23 14:02 57.22117 38.04669 31855 ft 448 kts 241°
2026-04-23 14:02 57.20540 37.99693 31484 ft 448 kts 242°
2026-04-23 14:03 57.18956 37.94754 31115 ft 447 kts 242°
2026-04-23 14:03 57.17368 37.89829 30754 ft 445 kts 242°
2026-04-23 14:03 57.15824 37.84978 30402 ft 444 kts 241°
2026-04-23 14:03 57.14249 37.80092 30048 ft 443 kts 241°
2026-04-23 14:04 57.12655 37.75241 29697 ft 443 kts 239°
2026-04-23 14:04 57.10783 37.70725 29272 ft 446 kts 225°
2026-04-23 14:04 57.08261 37.67429 28840 ft 447 kts 207°
2026-04-23 14:04 57.05353 37.65403 28448 ft 447 kts 198°
2026-04-23 14:05 57.02362 37.63812 28040 ft 450 kts 198°
2026-04-23 14:05 56.99378 37.61997 27631 ft 452 kts 201°
2026-04-23 14:05 56.96455 37.59940 27227 ft 444 kts 203°
2026-04-23 14:05 56.93629 37.57806 26825 ft 436 kts 204°
2026-04-23 14:06 56.90845 37.55680 26419 ft 429 kts 204°
2026-04-23 14:06 56.88096 37.53619 26034 ft 427 kts 203°
2026-04-23 14:06 56.85372 37.51622 25637 ft 414 kts 203°
2026-04-23 14:06 56.82727 37.49712 25246 ft 402 kts 203°
2026-04-23 14:07 56.80169 37.47867 24863 ft 390 kts 203°
2026-04-23 14:07 56.75229 37.44276 24109 ft 375 kts 202°
2026-04-23 14:07 56.72793 37.42503 23752 ft 381 kts 202°
2026-04-23 14:08 56.70344 37.40719 23405 ft 375 kts 202°
2026-04-23 14:08 56.67978 37.38987 23045 ft 366 kts 202°
2026-04-23 14:08 56.65630 37.37234 22614 ft 366 kts 203°
2026-04-23 14:08 56.63289 37.35463 22186 ft 362 kts 203°
2026-04-23 14:09 56.60976 37.33709 21760 ft 358 kts 203°
2026-04-23 14:09 56.58678 37.31970 21321 ft 359 kts 203°
2026-04-23 14:09 56.56400 37.30252 20899 ft 353 kts 203°
2026-04-23 14:09 56.54161 37.28590 20494 ft 352 kts 202°
2026-04-23 14:10 56.51865 37.26953 20100 ft 355 kts 201°
2026-04-23 14:10 56.49569 37.25361 19703 ft 349 kts 201°
2026-04-23 14:10 56.47329 37.23823 19299 ft 344 kts 201°
2026-04-23 14:10 56.45062 37.22278 18933 ft 350 kts 201°
2026-04-23 14:11 56.42792 37.20832 18550 ft 342 kts 199°
2026-04-23 14:11 56.40535 37.19500 18172 ft 345 kts 198°
2026-04-23 14:11 56.38316 37.18231 16836 ft 346 kts 198°
2026-04-23 14:11 56.35989 37.16901 17403 ft 351 kts 198°
2026-04-23 14:12 56.33690 37.15581 16966 ft 344 kts 198°
2026-04-23 14:12 56.31419 37.14269 16551 ft 342 kts 198°
2026-04-23 14:12 56.29146 37.12953 16133 ft 344 kts 198°
2026-04-23 14:12 56.26857 37.11629 15721 ft 343 kts 198°
2026-04-23 14:13 56.24602 37.10330 15311 ft 340 kts 198°
2026-04-23 14:13 56.22336 37.09023 14920 ft 342 kts 199°
2026-04-23 14:13 56.20075 37.07721 14524 ft 342 kts 199°
2026-04-23 14:13 56.17828 37.06427 14130 ft 342 kts 199°
2026-04-23 14:14 56.15533 37.05105 13747 ft 341 kts 199°
2026-04-23 14:14 56.13305 37.03823 13380 ft 341 kts 199°
2026-04-23 14:14 56.11044 37.02523 12976 ft 343 kts 199°
2026-04-23 14:14 56.08777 37.01219 12558 ft 339 kts 199°
2026-04-23 14:15 56.06543 36.99940 12144 ft 336 kts 199°
2026-04-23 14:15 56.04299 36.98652 11743 ft 340 kts 199°
2026-04-23 14:15 56.02051 36.97362 11324 ft 341 kts 199°
2026-04-23 14:15 55.99809 36.96077 11178 ft 329 kts 198°
2026-04-23 14:16 55.97656 36.94847 10822 ft 321 kts 199°
2026-04-23 14:16 55.95581 36.93683 10695 ft 307 kts 197°
2026-04-23 14:16 55.93508 36.92907 10283 ft 304 kts 186°
2026-04-23 14:16 55.91393 36.92831 9875 ft 303 kts 176°
2026-04-23 14:17 55.89298 36.93147 9487 ft 301 kts 173°
2026-04-23 14:17 55.87210 36.93533 9029 ft 300 kts 173°
2026-04-23 14:17 55.85134 36.93880 8563 ft 300 kts 173°
2026-04-23 14:17 55.83058 36.94198 8101 ft 299 kts 173°
2026-04-23 14:18 55.80990 36.94504 7636 ft 297 kts 173°
2026-04-23 14:18 55.78943 36.94807 7182 ft 292 kts 173°
2026-04-23 14:18 55.76939 36.95105 6717 ft 286 kts 173°
2026-04-23 14:18 55.74977 36.95425 6286 ft 281 kts 171°
2026-04-23 14:19 55.73053 36.95850 5847 ft 276 kts 168°
2026-04-23 14:19 55.71163 36.96355 5381 ft 273 kts 168°
2026-04-23 14:19 55.69298 36.96881 4938 ft 270 kts 168°
2026-04-23 14:19 55.67475 36.97394 4526 ft 267 kts 168°
2026-04-23 14:20 55.65665 36.97896 4199 ft 260 kts 169°
2026-04-23 14:20 55.63889 36.98388 3809 ft 257 kts 169°
2026-04-23 14:20 55.62136 36.98867 3461 ft 253 kts 170°
2026-04-23 14:20 55.60403 36.99201 3168 ft 247 kts 175°
2026-04-23 14:21 55.58705 36.99384 2901 ft 240 kts 175°
2026-04-23 14:21 55.57071 36.99726 2621 ft 233 kts 163°
2026-04-23 14:21 55.55686 37.01017 2332 ft 222 kts 135°
2026-04-23 14:21 55.54676 37.02976 2065 ft 208 kts 109°
2026-04-23 14:22 55.54426 37.05275 1936 ft 181 kts 72°
2026-04-23 14:22 55.54858 37.07308 2022 ft 175 kts 57°
2026-04-23 14:22 55.55369 37.09279 2042 ft 177 kts 60°
2026-04-23 14:22 55.55804 37.11260 2092 ft 167 kts 62°
2026-04-23 14:23 55.56205 37.13096 2058 ft 151 kts 60°
2026-04-23 14:23 55.56586 37.14739 1857 ft 142 kts 59°
2026-04-23 14:23 55.56956 37.16350 1645 ft 138 kts 59°
2026-04-23 14:23 55.57305 37.17913 1467 ft 140 kts 59°
2026-04-23 14:24 55.57676 37.19546 1253 ft 142 kts 60°
2026-04-23 14:24 55.58028 37.21150 1060 ft 143 kts 62°
2026-04-23 14:24 55.58402 37.22803 875 ft 146 kts 63°
2026-04-23 14:24 55.58772 37.24458 701 ft 141 kts 63°
2026-04-23 14:25 55.59092 37.25849 691 ft 92 kts 70°
2026-04-23 14:25 55.59238 37.26503 689 ft 24 kts 61°
2026-04-23 14:25 55.59331 37.26662 693 ft 14 kts 41°
2026-04-23 14:25 55.59390 37.26755 693 ft 10 kts 41°
2026-04-23 14:26 55.59435 37.26826 692 ft 8 kts 41°
2026-04-23 14:26 55.59478 37.26876 695 ft 7 kts 17°
2026-04-23 14:26 55.59533 37.26890 691 ft 8 kts
2026-04-23 14:26 55.59588 37.26918 695 ft 8 kts 37°
2026-04-23 14:27 55.59629 37.26995 693 ft 9 kts 47°
2026-04-23 14:27 55.59672 37.27077 692 ft 9 kts 46°
2026-04-23 14:27 55.59725 37.27173 688 ft 12 kts 46°
2026-04-23 14:27 55.59784 37.27284 689 ft 13 kts 46°
2026-04-23 14:28 55.59845 37.27396 692 ft 13 kts 46°
2026-04-23 14:28 55.59907 37.27509 693 ft 13 kts 45°
2026-04-23 14:28 55.59953 37.27614 695 ft 10 kts 57°
2026-04-23 14:28 55.59999 37.27712 695 ft 9 kts 49°
2026-04-23 14:29 55.59994 37.27810 691 ft 7 kts 127°
2026-04-23 14:29 55.59967 37.27884 690 ft 9 kts 118°
2026-04-23 14:29 55.59970 37.27975 688 ft 7 kts 24°
2026-04-23 14:29 55.60014 37.28002 689 ft 2 kts 18°
2026-04-23 14:30 55.60019 37.28005 690 ft 0 kts 18°